BEIDOU-3 M2 (C20)

Last updated on Dec. 12, 2019, 4:25 a.m. UTC

1 43002U 17069B   19345.04868748  .00000077  00000-0  00000+0 0  9992
2 43002  55.1564 142.5988 0006606 319.3579 233.6854  1.86231479 14264
UTC
Height (km)
Latitude
Longitude
Inclination
Orbital Period
UTC large
Height (km)
Speed (km/s)
/
Latitude / Longitude
Inclination (degrees)
Orbital Period (minutes)
Azimuth
Elevation
Range (km)
Doppler Factor
iOS Compass Heading
iOS Angle

Next 30 passes for location: Hong Kong

Rise time Rise Azimuth (degrees) Set time Set Azimuth (degrees) Duration Max altitude (degrees)

No matching passes for this satellites